Location: Tamazert
(32.6352°N, 5.2072°W)
Time: 07:59:16
(UTC+00:00)

CZ-4C R/B - Visible Passes

Search period start: 06 October 2022 00:00
Search period end: 16 October 2022 00:00
Orbit: 574 x 1426 km, 63.4° (Epoch: 05 October)

Date Brightness Start Highest point End Pass type
(mag) Time Alt. Az. Time Alt. Az. Time Alt. Az.
06 Oct 6.1 18:27:46 10° WNW 18:31:46 14° WSW 18:35:55 10° SW visible
09 Oct 4.2 05:27:13 10° SSE 05:30:44 24° ESE 05:34:39 10° NE visible
11 Oct 4.4 04:46:04 10° SSE 04:49:01 18° ESE 04:52:12 10° ENE visible
12 Oct 2.3 05:17:29 10° SSW 05:21:43 58° ESE 05:26:42 10° NE visible
13 Oct 4.5 04:05:20 10° SE 04:07:18 13° ESE 04:09:22 10° E visible
13 Oct 2.1 05:50:40 10° SW 05:54:55 46° NW 05:59:57 10° NNE visible
14 Oct 2.8 04:36:28 14° S 04:39:55 42° ESE 04:44:37 10° NE visible
15 Oct 1.7 05:10:01 20° SW 05:12:58 61° WNW 05:18:07 10° NNE visible
